GW5434 Weather Reports


time (UTC)temp
C
wind
direction
speed
KPH
gust
KPH
rain 1hr
cm
rain 24hr
cm
rain mn
cm
humidity
%
barometer
mb
20260509103009 17 127 0.0 1.6 0.00 2.03 0.00 96 1011.3
20260509101515 17 56 0.0 3.2 0.00 2.03 0.00 96 1011.5
20260509100019 17 99 0.0 4.8 0.00 2.03 0.00 96 1011.2
20260509094523 17 335 0.0 4.8 0.00 2.03 0.00 96 1011.4
20260509093024 17 31 0.0 3.2 0.00 2.03 0.00 96 1011.2
20260509091512 17 174 1.6 3.2 0.00 2.03 0.00 96 1011.2
20260509090021 17 169 0.0 0.0 0.00 2.03 0.00 96 1010.9
20260509084522 17 46 0.0 0.0 0.00 2.03 0.00 96 1011.0
20260509083024 17 346 0.0 0.0 0.00 2.03 0.00 96 1011.4
20260509081528 17 332 0.0 0.0 0.00 2.03 0.00 96 1011.9
20260509080013 17 99 0.0 0.0 0.00 2.03 0.00 96 1011.8
20260509074516 17 295 0.0 0.0 0.00 2.03 0.00 96 1012.1
20260509073033 17 295 0.0 3.2 0.00 2.03 0.00 96 1012.2
20260509071524 17 39 0.0 0.0 0.00 2.03 0.00 96 1012.3
20260509070028 17 129 0.0 0.0 0.00 2.03 0.00 96 1011.9
20260509064514 17 129 0.0 0.0 0.00 2.03 0.00 96 1012.0
20260509063028 17 129 0.0 1.6 0.00 2.03 0.00 96 1012.1
20260509061520 17 117 0.0 1.6 0.00 2.03 0.00 96 1012.6
20260509060028 17 34 0.0 4.8 0.00 2.03 0.00 96 1012.8
20260509054527 17 119 0.0 0.0 0.00 2.03 0.00 96 1012.5
20260509053024 17 119 0.0 1.6 0.00 2.03 0.00 96 1012.8
20260509051521 17 156 0.0 3.2 0.00 2.03 0.00 96 1013.0
20260509050024 16 119 0.0 1.6 0.00 2.03 0.00 96 1012.9
20260509044524 16 174 0.0 3.2 0.00 2.03 2.03 96 1012.5
20260509043029 16 115 0.0 0.0 0.00 2.03 2.03 96 1012.7
20260509041517 16 134 0.0 0.0 0.00 2.03 2.03 95 1012.7
20260509040021 16 143 0.0 0.0 0.00 2.03 2.03 95 1012.8
20260509034524 16 174 0.0 0.0 0.00 2.03 2.03 96 1013.1
20260509033010 16 144 0.0 0.0 0.00 2.03 2.03 95 1013.1
20260509031514 16 158 0.0 0.0 0.00 2.03 2.03 95 1013.1
20260509030020 16 130 0.0 0.0 0.00 2.03 2.03 95 1012.7
20260509024524 16 110 0.0 0.0 0.00 2.03 2.03 95 1012.8
20260509023025 17 110 0.0 0.0 0.00 2.03 2.03 95 1012.5
20260509021510 17 59 0.0 0.0 0.00 2.03 2.03 95 1012.4
20260509020014 17 109 0.0 0.0 0.00 2.03 2.03 95 1012.4
20260509014526 17 283 0.0 1.6 0.00 2.03 2.03 95 1012.3
20260509013023 17 119 0.0 0.0 0.00 2.03 2.03 95 1012.0
20260509011526 17 122 0.0 3.2 0.00 2.03 2.03 95 1012.3
20260509010034 17 9 1.6 1.6 0.00 2.03 2.03 94 1012.7
20260509004530 17 297 1.6 3.2 0.00 2.03 2.03 94 1012.9
20260509003021 17 356 0.0 1.6 0.00 2.03 2.03 94 1012.9
20260509001526 17 313 0.0 0.0 0.00 2.03 2.03 94 1012.5
20260509000026 17 312 0.0 0.0 0.00 2.03 2.03 94 1012.5
20260508234530 17 311 0.0 1.6 0.00 2.03 2.03 94 1012.5
20260508233034 17 110 0.0 1.6 0.00 2.03 2.03 93 1012.9
20260508231522 17 174 0.0 1.6 0.00 2.03 2.03 93 1012.8
20260508230025 17 174 0.0 1.6 0.00 2.03 2.03 94 1012.9
20260508224528 17 98 1.6 3.2 0.05 2.03 2.03 94 1012.4
20260508223004 17 173 1.6 6.4 0.08 2.03 2.03 94 1012.5
20260508221505 17 93 1.6 6.4 0.08 2.03 2.03 94 1012.5
20260508220003 17 238 3.2 11.3 0.13 2.03 2.03 94 1012.8
20260508214514 17 84 3.2 4.8 0.15 1.98 1.98 94 1012.5
20260508213004 17 134 0.0 12.9 0.20 1.96 1.96 94 1013.1
20260508211504 16 174 4.8 11.3 0.30 1.96 1.96 94 1012.7
20260508210004 16 174 1.6 16.1 0.28 1.91 1.91 95 1013.5
20260508204504 16 160 3.2 11.3 0.30 1.83 1.83 94 1014.1
20260508203004 16 109 0.0 0.0 0.30 1.75 1.75 94 1015.3
20260508201503 16 75 0.0 0.0 0.28 1.65 1.65 94 1015.8
20260508200006 16 103 0.0 4.8 0.36 1.63 1.63 94 1015.4
20260508194507 16 148 1.6 8.0 0.30 1.52 1.52 94 1015.4
20260508193005 16 143 1.6 4.8 0.30 1.45 1.45 94 1015.3
20260508191503 16 10 0.0 1.6 0.33 1.37 1.37 94 1014.7
20260508190005 16 308 3.2 4.8 0.36 1.27 1.27 93 1014.9
20260508184504 16 63 1.6 6.4 0.36 1.22 1.22 93 1014.1
20260508183004 16 15 1.6 4.8 0.38 1.14 1.14 93 1015.2
20260508181505 16 113 1.6 6.4 0.51 1.04 1.04 93 1015.8
20260508180007 16 210 4.8 9.7 0.48 0.91 0.91 93 1015.8
20260508174509 16 146 4.8 6.4 0.53 0.86 0.86 93 1015.9
20260508173008 16 176 1.6 8.0 0.53 0.76 0.76 93 1016.2
20260508171504 16 6 3.2 6.4 0.41 0.53 0.53 92 1016.9
20260508170008 16 33 3.2 8.0 0.38 0.43 0.43 93 1017.0
20260508164507 16 322 3.2 8.0 0.30 0.33 0.33 93 1016.7
20260508163014 16 318 0.0 1.6 0.20 0.23 0.23 92 1016.7
20260508161508 16 139 0.0 0.0 0.10 0.13 0.13 91 1017.2
20260508160008 16 278 0.0 3.2 0.05 0.05 0.05 90 1017.4
20260508154508 16 6 0.0 4.8 0.03 0.03 0.03 89 1016.4
20260508153017 17 140 0.0 3.2 0.03 0.03 0.03 89 1015.8
20260508151508 17 356 0.0 3.2 0.03 0.03 0.03 86 1016.6
20260508150011 17 333 0.0 1.6 0.00 0.00 0.00 85 1016.2
20260508144512 17 337 0.0 1.6 0.00 0.00 0.00 84 1016.1
20260508143013 17 118 0.0 4.8 0.00 0.00 0.00 83 1016.3
20260508141512 18 319 0.0 6.4 0.00 0.00 0.00 83 1016.5
20260508140013 17 70 1.6 6.4 0.00 0.00 0.00 85 1016.3
20260508134515 17 100 1.6 1.6 0.00 0.00 0.00 86 1016.4
20260508133012 17 122 0.0 3.2 0.00 0.00 0.00 88 1016.4
20260508131511 16 13 0.0 6.4 0.00 0.00 0.00 89 1016.4
20260508130012 16 58 1.6 8.0 0.00 0.00 0.00 91 1016.3
20260508124515 16 70 0.0 6.4 0.00 0.00 0.00 93 1016.2
20260508123022 15 81 1.6 4.8 0.00 0.00 0.00 95 1016.1
20260508121515 15 51 0.0 0.0 0.00 0.00 0.00 95 1016.7
20260508120013 15 30 0.0 0.0 0.00 0.00 0.00 95 1017.2
20260508114516 15 30 0.0 0.0 0.00 0.00 0.00 95 1016.8
20260508113016 15 30 0.0 0.0 0.00 0.00 0.00 95 1016.4
20260508111517 15 95 0.0 0.0 0.00 0.00 0.00 95 1016.5
20260508110028 15 96 0.0 0.0 0.00 0.00 0.00 94 1016.3
20260508104517 15 333 0.0 0.0 0.00 0.00 0.00 95 1016.3